User: anonymous   Login
Location: Wharf Road Observatory
(44.7802°N, 65.6070°W)
Time: 21:19:23
(UTC-04:00)
Language:

ITUPSAT 1 - Orbit

View from above orbital plane
View from above orbital plane
View from above satellite
View from above satellite

Ground track
Ground track

The orbit data is extracted from the following two-line orbital elements,

1 35935U 09051E   23033.13492197  .00000738  00000-0  17754-3 0  9992
2 35935  98.5439 261.6168 0009203  79.4350 280.7883 14.56315048709309
Epoch (UTC): 02 February 2023 03:14:17
Eccentricity: 0.0009203
inclination: 98.5439°
perigee height: 698 km
apogee height: 711 km
right ascension of ascending node: 261.6168°
argument of perigee: 79.4350°
revolutions per day: 14.56315048
mean anomaly at epoch: 280.7883°
orbit number at epoch: 70930

The dashed part of the orbit path shows where the satellite is in the earth's shadow,  

DLR